This is the latest recevied weather packets stored in our database for station/object 4S6DRJ-13. If no packets are shown the sender has not sent any weather packets the latest 10 day(s).
| Time | Temp. | Humidity | Pressure | Rain* | Wind** | Luminosity | Snow |
|---|---|---|---|---|---|---|---|
| 1788296635 | 27.78° C | 83% | 1009.1 hPa | 0 mm | 0 m/s | 0 W/m² | - |
| 1788296574 | 27.78° C | 83% | 1009.1 hPa | 0 mm | 0 m/s | 0 W/m² | - |
| 1788296513 | 27.78° C | 83% | 1009 hPa | 0 mm | 0 m/s | 0 W/m² | - |
| 1788296452 | 27.78° C | 83% | 1009.1 hPa | 0 mm | 0 m/s | 0 W/m² | - |
| 1788296391 | 27.78° C | 83% | 1009 hPa | 0 mm | 0 m/s | 0 W/m² | - |
| 1788296331 | 27.78° C | 83% | 1009 hPa | 0 mm | 0.45 m/s, 214° | 0 W/m² | - |
| 1788296269 | 27.78° C | 83% | 1009.3 hPa | 0 mm | 0.45 m/s, 223° | 0 W/m² | - |
| 1788296208 | 27.78° C | 83% | 1009.2 hPa | 0 mm | 0 m/s | 0 W/m² | - |
| 1788296147 | 27.78° C | 83% | 1009.3 hPa | 0 mm | 0.45 m/s, 220° | 0 W/m² | - |
| 1788296086 | 27.78° C | 83% | 1009.1 hPa | 0 mm | 0.89 m/s, 200° | 0 W/m² | - |
| 1788296025 | 27.78° C | 83% | 1009.1 hPa | 0 mm | 0 m/s | 0 W/m² | - |
| 1788295965 | 27.78° C | 83% | 1009.2 hPa | 0 mm | 1.79 m/s, 174° | 0 W/m² | - |
| 1788295903 | 27.78° C | 83% | 1009.2 hPa | 0 mm | 1.34 m/s, 223° | 0 W/m² | - |
| 1788295842 | 27.78° C | 83% | 1009.3 hPa | 0 mm | 0 m/s | 0 W/m² | - |
| 1788295781 | 27.78° C | 83% | 1009.3 hPa | 0 mm | 0.89 m/s, 194° | 0 W/m² | - |
| 1788295720 | 27.78° C | 83% | 1009.3 hPa | 0 mm | 0.89 m/s, 222° | 0 W/m² | - |
| 1788295659 | 27.78° C | 83% | 1009.1 hPa | 0 mm | 0 m/s | 0 W/m² | - |
| 1788295598 | 27.78° C | 83% | 1009.2 hPa | 0 mm | 0.89 m/s, 219° | 0 W/m² | - |
| 1788295537 | 27.78° C | 83% | 1009.3 hPa | 0 mm | 0.89 m/s, 229° | 0 W/m² | - |
| 1788295476 | 27.78° C | 83% | 1009 hPa | 0 mm | 0 m/s | 0 W/m² | - |
| 1788295416 | 27.78° C | 83% | 1009.2 hPa | 0 mm | 0.45 m/s, 185° | 0 W/m² | - |
| 1788295354 | 27.78° C | 83% | 1009.3 hPa | 0 mm | 0.89 m/s, 215° | 0 W/m² | - |
| 1788295293 | 27.78° C | 83% | 1009.3 hPa | 0 mm | 0.89 m/s, 223° | 0 W/m² | - |
| 1788295232 | 27.78° C | 83% | 1009.1 hPa | 0 mm | 0.45 m/s, 221° | 0 W/m² | - |
| 1788295171 | 27.78° C | 83% | 1009.3 hPa | 0 mm | 0.89 m/s, 192° | 0 W/m² | - |
* Rain latest hour (hover to see other rain measurements)
** Current wind speed in m/s (hover to see current wind gust speed)